| time (UTC) | temp C | wind direction | speed KPH | gust KPH | rain 1hr cm | rain 24hr cm | rain mn cm | humidity % | barometer mb |
| 20260505151545 | 23 | 228 | 24.1 | 35.4 | 0.00 | 0.00 | 0.00 | 77 | 1008.3 |
| 20260505124549 | 20 | 204 | 32.2 | 41.8 | 0.00 | 0.00 | 0.00 | 87 | 1007.4 |
| 20260505123042 | 19 | 221 | 29.0 | 38.6 | 0.00 | 0.00 | 0.00 | 87 | 1007.3 |
| 20260505121543 | 19 | 215 | 27.4 | 38.6 | 0.00 | 0.00 | 0.00 | 87 | 1007.1 |
| 20260505120046 | 19 | 223 | 24.1 | 37.0 | 0.00 | 0.00 | 0.00 | 86 | 1007.1 |
| 20260505114549 | 19 | 221 | 25.7 | 38.6 | 0.00 | 0.00 | 0.00 | 86 | 1006.9 |
| 20260505113042 | 19 | 221 | 27.4 | 35.4 | 0.00 | 0.00 | 0.00 | 85 | 1006.7 |
| 20260505111546 | 20 | 234 | 27.4 | 38.6 | 0.00 | 0.00 | 0.00 | 85 | 1006.7 |
| 20260505101550 | 20 | 229 | 25.7 | 37.0 | 0.00 | 0.00 | 0.00 | 82 | 1006.4 |
| 20260505100046 | 20 | 218 | 27.4 | 40.2 | 0.00 | 0.00 | 0.00 | 81 | 1006.3 |
| 20260505094601 | 20 | 219 | 29.0 | 40.2 | 0.00 | 0.00 | 0.00 | 81 | 1006.4 |
| 20260505093043 | 20 | 212 | 25.7 | 38.6 | 0.00 | 0.00 | 0.00 | 81 | 1006.2 |
| 20260505091545 | 20 | 217 | 25.7 | 38.6 | 0.00 | 0.00 | 0.00 | 81 | 1006.2 |
| 20260505090047 | 20 | 224 | 30.6 | 40.2 | 0.00 | 0.00 | 0.00 | 80 | 1006.6 |
| 20260505084553 | 20 | 205 | 27.4 | 38.6 | 0.00 | 0.00 | 0.00 | 80 | 1006.6 |
| 20260505083054 | 20 | 218 | 25.7 | 40.2 | 0.00 | 0.00 | 0.00 | 80 | 1006.5 |
| 20260505081555 | 20 | 221 | 27.4 | 43.5 | 0.00 | 0.00 | 0.00 | 80 | 1006.8 |
| 20260505080050 | 20 | 209 | 30.6 | 38.6 | 0.00 | 0.00 | 0.00 | 79 | 1006.8 |
| 20260505074545 | 21 | 211 | 30.6 | 40.2 | 0.00 | 0.00 | 0.00 | 79 | 1007.0 |
| 20260505073045 | 21 | 202 | 33.8 | 45.1 | 0.00 | 0.00 | 0.00 | 78 | 1007.1 |
| 20260505071550 | 21 | 206 | 33.8 | 45.1 | 0.00 | 0.00 | 0.00 | 78 | 1007.2 |
| 20260505070048 | 21 | 221 | 33.8 | 45.1 | 0.00 | 0.00 | 0.00 | 78 | 1007.3 |
| 20260505064549 | 21 | 199 | 33.8 | 45.1 | 0.00 | 0.00 | 0.00 | 77 | 1007.5 |
| 20260505063045 | 21 | 207 | 35.4 | 46.7 | 0.00 | 0.00 | 0.00 | 76 | 1007.8 |
| 20260505061553 | 21 | 205 | 33.8 | 45.1 | 0.00 | 0.00 | 0.00 | 76 | 1007.5 |
| 20260505060049 | 21 | 217 | 33.8 | 46.7 | 0.00 | 0.00 | 0.00 | 75 | 1007.7 |
| 20260505054554 | 22 | 200 | 35.4 | 48.3 | 0.00 | 0.00 | 0.00 | 75 | 1007.7 |
| 20260505053046 | 22 | 202 | 37.0 | 48.3 | 0.00 | 0.00 | 0.00 | 74 | 1007.8 |
| 20260505051541 | 22 | 186 | 30.6 | 48.3 | 0.00 | 0.00 | 0.00 | 73 | 1007.8 |
| 20260505041541 | 23 | 200 | 32.2 | 49.9 | 0.00 | 0.00 | 0.00 | 71 | 1007.6 |
| 20260505040045 | 23 | 203 | 32.2 | 45.1 | 0.00 | 0.00 | 0.00 | 70 | 1007.7 |
| 20260505034547 | 23 | 197 | 29.0 | 40.2 | 0.00 | 0.00 | 0.00 | 69 | 1007.5 |
| 20260505033045 | 23 | 203 | 27.4 | 43.5 | 0.00 | 0.00 | 0.00 | 68 | 1007.5 |
| 20260505031554 | 23 | 182 | 24.1 | 35.4 | 0.00 | 0.00 | 0.00 | 67 | 1007.5 |
| 20260505030046 | 24 | 191 | 25.7 | 35.4 | 0.00 | 0.00 | 0.00 | 65 | 1007.2 |
| 20260505024552 | 25 | 202 | 25.7 | 33.8 | 0.00 | 0.00 | 0.00 | 63 | 1007.3 |
| 20260505023048 | 25 | 198 | 20.9 | 29.0 | 0.00 | 0.00 | 0.00 | 63 | 1007.2 |
| 20260505021544 | 25 | 213 | 20.9 | 29.0 | 0.00 | 0.00 | 0.00 | 61 | 1007.2 |
| 20260505020043 | 26 | 207 | 24.1 | 37.0 | 0.00 | 0.00 | 0.00 | 58 | 1007.2 |
| 20260505014600 | 26 | 214 | 25.7 | 38.6 | 0.00 | 0.00 | 0.00 | 57 | 1007.0 |
| 20260505013048 | 26 | 207 | 20.9 | 32.2 | 0.00 | 0.00 | 0.00 | 56 | 1007.2 |
| 20260505011551 | 27 | 215 | 25.7 | 33.8 | 0.00 | 0.00 | 0.00 | 55 | 1007.0 |
| 20260505010045 | 27 | 216 | 17.7 | 30.6 | 0.00 | 0.00 | 0.00 | 54 | 1007.0 |
| 20260505004545 | 27 | 212 | 20.9 | 32.2 | 0.00 | 0.00 | 0.00 | 52 | 1007.0 |
| 20260505003042 | 28 | 224 | 25.7 | 37.0 | 0.00 | 0.00 | 0.00 | 51 | 1007.0 |
| 20260505001547 | 28 | 204 | 27.4 | 38.6 | 0.00 | 0.00 | 0.00 | 50 | 1007.1 |
| 20260505000052 | 28 | 225 | 30.6 | 40.2 | 0.00 | 0.00 | 0.00 | 47 | 1007.3 |
| 20260504234545 | 29 | 205 | 32.2 | 41.8 | 0.00 | 0.00 | 0.00 | 47 | 1007.3 |
| 20260504233044 | 29 | 211 | 35.4 | 41.8 | 0.00 | 0.00 | 0.00 | 46 | 1007.4 |
| 20260504231545 | 30 | 190 | 29.0 | 46.7 | 0.00 | 0.00 | 0.00 | 46 | 1007.3 |
| 20260504230049 | 30 | 217 | 32.2 | 43.5 | 0.00 | 0.00 | 0.00 | 45 | 1007.3 |
| 20260504224548 | 30 | 201 | 33.8 | 45.1 | 0.00 | 0.00 | 0.00 | 45 | 1007.4 |
| 20260504223047 | 30 | 198 | 32.2 | 43.5 | 0.00 | 0.00 | 0.00 | 46 | 1007.7 |
| 20260504221545 | 30 | 198 | 27.4 | 43.5 | 0.00 | 0.00 | 0.00 | 45 | 1007.7 |
| 20260504220042 | 30 | 215 | 29.0 | 41.8 | 0.00 | 0.00 | 0.00 | 44 | 1007.9 |
| 20260504214553 | 30 | 225 | 25.7 | 37.0 | 0.00 | 0.00 | 0.00 | 46 | 1007.9 |
| 20260504213046 | 30 | 223 | 24.1 | 38.6 | 0.00 | 0.00 | 0.00 | 46 | 1008.2 |
| 20260504211546 | 30 | 213 | 25.7 | 43.5 | 0.00 | 0.00 | 0.00 | 45 | 1008.5 |
| 20260504210058 | 30 | 223 | 25.7 | 38.6 | 0.00 | 0.00 | 0.00 | 45 | 1009.2 |
| 20260504204557 | 30 | 222 | 25.7 | 38.6 | 0.00 | 0.00 | 0.00 | 47 | 1009.0 |
| 20260504203044 | 30 | 225 | 25.7 | 38.6 | 0.00 | 0.00 | 0.00 | 47 | 1009.2 |
| 20260504201547 | 29 | 207 | 22.5 | 37.0 | 0.00 | 0.00 | 0.00 | 48 | 1009.1 |
| 20260504200047 | 29 | 194 | 22.5 | 35.4 | 0.00 | 0.00 | 0.00 | 48 | 1009.4 |
| 20260504194542 | 28 | 225 | 25.7 | 37.0 | 0.00 | 0.00 | 0.00 | 48 | 1009.8 |
| 20260504193053 | 28 | 199 | 25.7 | 37.0 | 0.00 | 0.00 | 0.00 | 51 | 1010.1 |
| 20260504191554 | 27 | 221 | 27.4 | 40.2 | 0.00 | 0.00 | 0.00 | 52 | 1010.1 |
| 20260504190053 | 27 | 229 | 25.7 | 35.4 | 0.00 | 0.00 | 0.00 | 53 | 1010.6 |
| 20260504184545 | 26 | 211 | 25.7 | 35.4 | 0.00 | 0.00 | 0.00 | 55 | 1010.9 |
| 20260504183043 | 26 | 199 | 24.1 | 38.6 | 0.00 | 0.00 | 0.00 | 55 | 1011.2 |
| 20260504181543 | 26 | 209 | 27.4 | 40.2 | 0.00 | 0.00 | 0.00 | 56 | 1011.4 |
| 20260504180106 | 25 | 236 | 24.1 | 37.0 | 0.00 | 0.00 | 0.00 | 58 | 1011.7 |
| 20260504174547 | 25 | 190 | 29.0 | 40.2 | 0.00 | 0.00 | 0.00 | 60 | 1012.0 |
| 20260504173058 | 25 | 217 | 24.1 | 38.6 | 0.00 | 0.00 | 0.00 | 61 | 1012.0 |
| 20260504171546 | 24 | 209 | 29.0 | 40.2 | 0.00 | 0.00 | 0.00 | 60 | 1012.4 |